Benson, United Kingdom

1:01 AM GMT on February 28, 2017 (GMT +0000)
Benson Air Base

Weather History for EGUB - September, 2013

Change the Weather History Date:

Wednesday, September 4, 2013

  Actual Average Record
Temperature  
Mean Temperature 65 °F -  
Max Temperature 82 °F 63 °F 82 °F (2005)
Min Temperature 48 °F 47 °F 37 °F (2000)
Growing Degree Days 15 (Base 50)    
Moisture  
Dew Point 51 °F    
Average Humidity 67    
Maximum Humidity 100    
Minimum Humidity 20    
Precipitation  
Precipitation 0.00 in - - ()
Sea Level Pressure  
Sea Level Pressure 30.13 in    
Wind  
Wind Speed 3 mph ()    
Max Wind Speed 12 mph    
Max Gust Speed -    
Visibility 6.5 miles    
Events Fog    
Averages and records for this station are not official NWS values.
T = Trace of Precipitation, MM = Missing Value Source: Averaged Metar Reports

Daily Weather History Graph

Daily Weather History Graph

Search for Another Location

Airport or City:

Trip Planner

Search our weather history database for the weather conditions in past years. The results will help you decide how hot, cold, wet, or windy it might be!

Date:

Astronomy

Sep. 04, 2013 Rise Set
Actual Time 6:21 AM BST 7:43 PM BST
Civil Twilight 5:46 AM BST 8:18 PM BST
Nautical Twilight 5:04 AM BST 9:00 PM BST
Astronomical Twilight 4:18 AM BST 9:46 PM BST
Moon 5:18 AM BST (9/4) 6:52 PM BST (9/4)
Length of Visible Light 14h 31m
Length of Day
13h 22m
Waning Crescent, 1% of the Moon is Illuminated
Sep 4
Waning Crescent
Sep 5
New
Sep 12
First Quarter
Sep 19
Full
Sep 27
Last Quarter

Hourly Weather History & Observations

Time (BST) Temp. Dew Point Humidity Pressure Visibility Wind Dir Wind Speed Gust Speed Precip Events Conditions
12:50 AM 55.4 °F 53.6 °F 94% 30.24 in 6.2 mi ESE 2.3 mph - N/A   Partly Cloudy
1:50 AM 53.6 °F 51.8 °F 94% 30.24 in 6.2 mi ESE 2.3 mph - N/A   Unknown
2:50 AM 53.6 °F 51.8 °F 94% 30.24 in 6.2 mi South 1.2 mph - N/A   Unknown
3:50 AM 52 °F 51 °F 96% 30.25 in 7 mi Calm Calm - -  
3:50 AM 51.8 °F 51.8 °F 100% 30.24 in - Calm Calm - N/A   Clear
4:50 AM 53.6 °F 53.6 °F 100% 30.21 in 6.2 mi Calm Calm - N/A Fog Partly Cloudy
5:50 AM 50.0 °F 50.0 °F 100% 30.21 in 1.9 mi East 1.2 mph - N/A   Partly Cloudy
6:50 AM 50 °F 49 °F 96% 30.22 in 0 mi Calm Calm - - Fog Patches of Fog
6:50 AM 50.0 °F 50.0 °F 100% 30.21 in 0.7 mi Calm Calm - N/A   Partly Cloudy
7:27 AM 51.8 °F 50.0 °F 94% 30.21 in 1.9 mi Calm Calm - N/A   Partly Cloudy
7:50 AM 53.6 °F 53.6 °F 100% 30.21 in 3.1 mi SSE 1.2 mph - N/A   Partly Cloudy
8:50 AM 60.8 °F 57.2 °F 88% 30.18 in 5.0 mi North 1.2 mph - N/A   Haze
9:50 AM 69 °F 58 °F 61% 30.20 in 9 mi SSW 1.2 mph - -   Partly Cloudy
9:50 AM 69.8 °F 59.0 °F 68% 30.18 in - SSW 1.2 mph - N/A   Clear
10:50 AM 73.4 °F 57.2 °F 57% 30.18 in - ESE 6.9 mph - N/A   Clear
11:50 AM 75.2 °F 57.2 °F 53% 30.15 in 6.2 mi SE 6.9 mph - N/A   Partly Cloudy
12:50 PM 78 °F 55 °F 34% 30.14 in 12 mi South 10.4 mph - -   Partly Cloudy
12:50 PM 77.0 °F 55.4 °F 47% 30.12 in 6.2 mi South 10.4 mph - N/A   Scattered Clouds
1:50 PM 78.8 °F 55.4 °F 44% 30.09 in - SE 8.1 mph - N/A   Clear
2:50 PM 80.6 °F 51.8 °F 37% 30.09 in - South 8.1 mph - N/A   Clear
3:50 PM 82 °F 47 °F 20% 30.07 in 16 mi SSE 6.9 mph - -   Clear
3:50 PM 82.4 °F 48.2 °F 30% 30.06 in - SSE 6.9 mph - N/A   Clear
4:50 PM 80.6 °F 46.4 °F 30% 30.04 in - SSE 10.4 mph - N/A   Clear
5:50 PM 80.6 °F 46.4 °F 30% 30.04 in - South 11.5 mph - N/A   Clear
6:50 PM 77.0 °F 46.4 °F 34% 30.01 in - South 8.1 mph - N/A   Clear
7:50 PM 68.0 °F 46.4 °F 46% 30.01 in - South 5.8 mph - N/A   Clear
8:50 PM 68.0 °F 46.4 °F 46% 30.01 in - SE 5.8 mph - N/A   Clear
9:50 PM 61 °F 48 °F 53% 30.03 in 16 mi South 2.3 mph - -   Scattered Clouds
9:50 PM 60.8 °F 48.2 °F 63% 30.01 in - South 2.3 mph - N/A   Clear
10:50 PM 55.4 °F 48.2 °F 77% 30.01 in - South 1.2 mph - N/A   Clear
11:50 PM 53.6 °F 48.2 °F 82% 30.01 in - ESE 3.5 mph - N/A   Clear